Location: *
(44.3925°N, 5.4708°E)
Time: 10:59:48
(UTC+00:00)

DELTA 2 R/B (1) - Pass Details

Date: 18 September 2019
Orbit: 791 x 802 km, 39.6° (Epoch: 19 October)

Event Time Altitude Azimuth Distance (km) Brightness Sun altitude
Rises 19:21:54 0° 232° (SW) 3,296 7.2 -17.9°
Reaches altitude 10° 19:24:34 10° 223° (SW) 2,367 6.3 -18.4°
Maximum altitude 19:29:35 35° 160° (SSE) 1,277 4.3 -19.2°
Enters shadow 19:30:26 33° 140° (SE) 1,323 4.2 -19.3°
